Regional Weather Roundup
Issued by NWS

Home | Current Version | Previous Version | Graphics & Text | Print | Product List | Glossary On
Versions: 1 2 3 4 5 6 7 8 9 10 11 12 13 14 15 16 17 18 19 20 21 22 23 24 25 26 27 28 29 30 31 32 33 34 35 36 37 38 39 40 41 42 43 44 45 46 47 48 49 50
000
ASUS45 KABQ 301901
RWRNM
WEATHER ROUNDUP FOR NEW MEXICO
NATIONAL WEATHER SERVICE ALBUQUERQUE NM
100 PM MDT WED JUL 30 2014

NOTE: "FAIR" MEANS FEW OR NO CLOUDS BELOW 12,000 FEET AGL WITH NO
       SIGNIFICANT WEATHER OR OBSTRUCTIONS TO VISION.

      THIS PRODUCT IS RELEASED AS TWO VERSIONS.  ONE VERSION NEAR
      THE TOP OF THE HOUR CONTAINING PRELIMINARY DATA FROM ALBUQUERQUE
      AND OTHER STATIONS.  A FINAL VERSION WITH ADDITIONAL DATA IS
      ISSUED ABOUT 10 MINUTES AFTER THE HOUR.

NMZ501-503-504-510>518-302000-
NORTHWEST PLATEAU/NORTHCENTRAL MOUNTAINS

CITY           SKY/WX    TMP DP  RH WIND       PRES   REMARKS
FARMINGTON     SUNNY     85  48  27 SW9       30.19F
LOS ALAMOS     PTSUNNY   71  53  53 SE6       30.33F
SANTA FE       MOSUNNY   78  55  44 CALM      30.25F
TAOS           CLOUDY    72  52  49 CALM      30.32F
ANGEL FIRE     CLOUDY    68  51  53 W16       30.40S

$$
NMZ402-403-502-505>509-302000-
WESTCENTRAL MOUNTAINS/SOUTHWEST MOUNTAINS

CITY           SKY/WX    TMP DP  RH WIND       PRES   REMARKS
GALLUP         PTSUNNY   82  49  31 SW9       30.27F

$$
NMZ407-409-411-412-302000-
SOUTHERN DESERTS

CITY           SKY/WX    TMP DP  RH WIND       PRES   REMARKS
LORDSBURG      FAIR      90  50  25 W9G16     30.14F
DEMING         SUNNY     93  52  24 VRB5      30.11F
LAS CRUCES     SUNNY     92  51  24 NE10      30.14F
HOLLOMAN AFB   MOSUNNY   91  55  29 VRB6      30.09F
T OR C         SUNNY     90  54  29 VRB7      30.14F

$$
NMZ519>523-302000-
CENTRAL VALLEYS/CENTRAL HIGHLANDS

CITY           SKY/WX    TMP DP  RH WIND       PRES   REMARKS
ALBUQUERQUE    MOSUNNY   81  55  40 SW7       30.21F
DOUBLE EAGLE   MOSUNNY   81  57  44 CALM      30.24F
CLINES CORNERS MOSUNNY   79  53  40 NW10G18   30.30F
BELEN          FAIR      82  56  41 CALM      30.19F
SOCORRO        FAIR      89  51  27 W5        30.16F

$$
NMZ524>526-539-540-302000-
SOUTHCENTRAL MOUNTAINS

CITY           SKY/WX    TMP DP  RH WIND       PRES   REMARKS
RUIDOSO        NOT AVBL

$$
NMZ527>531-302000-
NORTHEAST HIGHLANDS/NORTHEAST PLAINS

CITY           SKY/WX    TMP DP  RH WIND       PRES   REMARKS
LAS VEGAS      LGT RAIN  71  55  56 E10       30.31F
RATON          MOSUNNY   70  56  61 NE22      30.28S
CLAYTON        CLOUDY    70  60  70 N26G35    30.23R

$$
NMZ532>537-302000-
EASTCENTRAL PLAINS

CITY           SKY/WX    TMP DP  RH WIND       PRES   REMARKS
TUCUMCARI      MOSUNNY   86  59  39 NE14G25   30.12S
CANNON AFB     MOSUNNY   81  66  60 NE15      30.13S
CLOVIS AIRPORT NOT AVBL

$$
NMZ028-029-538-302000-
SOUTHEAST PLAINS

CITY           SKY/WX    TMP DP  RH WIND       PRES   REMARKS
ROSWELL        SUNNY     90  68  48 CALM      30.05F
ARTESIA        SUNNY     95  59  30 N6G20     30.03F
CARLSBAD       SUNNY    100  52  19 N14G21    29.99F HX  97
HOBBS          MOSUNNY   95  52  23 W9        30.03F


$$


USA.gov is the U.S. government's official web portal to all federal, state and local government web resources and services.